Flag for U.S.A. Weather past 2 weeks in Fayetteville, North Carolina, U.S.A.

Now
52 °F

Sunny.


Feels Like: 50 °F
Forecast: 32 / 52 °F
Wind: 7 mph from Northeast

Location: Fayetteville Regional Airport

Current Time: Dec 21, 2014 at 4:01:31 PM

Latest Report: Dec 21, 2014 at 2:53 PM


Visibility: 10 mi

Pressure: 30.19 "Hg

Humidity: 61%

Dew point: 39 °F

Location of FayettevilleLocation

Historic Weather in Fayetteville — Graph

°F

Fayetteville temperature yesterday

Maximum temperature yesterday: 41 °F (at 2:53 PM)
Minimum temperature yesterday: 37 °F (at 8:53 PM)
Average temperature yesterday: 39 °F

Past Weeks' High & Low Weather Summary

 TemperatureHumidityPressure
High63 °F (Dec 13, 2:53 PM)100% (Dec 16, 4:53 AM)30.40 "Hg (Dec 16, 4:53 AM)
Low27 °F (Dec 11, 6:53 AM)18% (Dec 12, 12:53 PM)29.87 "Hg (Dec 16, 3:53 PM)
Average45 °F68%30.10 "Hg
* Reported Dec 6 2:00 PM — Dec 21 2:53 PM, Fayetteville, Weather by CustomWeather, © 2014

Note: Actual official high and low records may vary slightly from our data, if they occured in-between our weather recording intervals... More about our weather records

Advertising

Fayetteville weather history for previous 24 hours

 ConditionsComfort  
Time TempWeatherWind HumidityBarometerVisibility
2:53 PM
Dec 21
52 °FSunny.7 mph61%30.19 "Hg10 mi
1:53 PM51 °FSunny.10 mph61%30.20 "Hg10 mi
12:53 PM50 °FSunny.8 mph63%30.23 "Hg10 mi
11:53 AM49 °FOvercast.8 mph61%30.27 "Hg10 mi
10:53 AM46 °FPartly sunny.9 mph66%30.29 "Hg10 mi
9:53 AM41 °FMostly cloudy.7 mph76%30.30 "Hg10 mi
8:53 AM39 °FOvercast.8 mph82%30.29 "Hg8 mi
8:01 AM36 °FFog.5 mph92%30.30 "Hg4 mi
7:53 AM36 °FFog.5 mph92%30.29 "Hg4 mi
6:53 AM36 °FClear.6 mph92%30.27 "Hg7 mi
5:53 AM38 °FOvercast.9 mph93%30.24 "Hg7 mi
4:53 AM39 °FFog.7 mph89%30.24 "Hg6 mi
3:53 AM39 °FOvercast.5 mph89%30.25 "Hg7 mi
2:53 AM39 °FOvercast.5 mph89%30.25 "Hg7 mi
1:53 AM38 °FFog.5 mph93%30.25 "Hg5 mi
12:53 AM38 °FFog.7 mph93%30.24 "Hg6 mi
11:53 PM
Dec 20
38 °FFog.No wind93%30.25 "Hg5 mi
10:53 PM38 °FFog.3 mph97%30.27 "Hg5 mi
9:53 PM37 °FFog.No wind93%30.27 "Hg5 mi
8:53 PM37 °FFog.3 mph93%30.27 "Hg5 mi
7:53 PM38 °FFog.5 mph93%30.26 "Hg6 mi
6:53 PM38 °FMostly cloudy.5 mph93%30.26 "Hg7 mi
5:53 PM40 °FLow clouds.3 mph89%30.24 "Hg8 mi
4:53 PM41 °FCloudy.7 mph86%30.23 "Hg8 mi
Weather by CustomWeather, © 2014

See weather overviewHow to use our weather pages